Volver al catálogo

OPS 9434

DSCS 2-4

ActivoMilitarGEO
NORAD 6974·PAYLOAD·🇺🇸 United States

Lanzado Dec 13, 1973 desde Cape Canaveral Space Force Station

Loading…

TLE

ActualizadoSource: Space-Track

Época: Sep 14, 2026, 10:14 UTC

1 06974U 73100B   26257.42657784 -.00000150  00000-0  00000-0 0  9999
2 06974   4.4528 280.9333 0064137  86.6577 108.7253  0.97519801848498

Sigue OPS 9434 en tiempo real con AllMySat

Download on the App Store